This demonstration page uses our WeatherBlox Daily Observations layout. Learn more.

Left ArrowRight Arrow

Hourly Observations for July 6, 2021

Temp ( °F °C ) Dew Point ( °F °C ) Humidity (%) Winds ( mph kmh ) Pressure ( in mb ) Visibility ( mi km ) Precip ( " mm )
12:53 am 00:53 undefined 77 25 66 18.9 69 69 ESE 10 17 29.88 1012 10 16 0.00 0.00
1:53 am 01:53 undefined 75 23.9 66 18.9 74 74 ESE 8 13 29.87 1011 10 16 0.00 0.00
2:53 am 02:53 undefined 73 22.8 67 19.4 81 81 E 7 11 29.87 1012 10 16 0.00 0.00
3:53 am 03:53 undefined 72 22.2 67 19.4 84 84 E 6 9 29.86 1011 10 16 0.00 0.00
4:53 am 04:53 undefined 72 22.2 68 20 87 87 ESE 7 11 29.87 1012 10 16 0.00 0.00
5:53 am 05:53 undefined 71 21.7 68 20 90 90 E 7 11 29.87 1011 10 16 0.00 0.00
6:38 am 06:38 Cloudy 71 21.7 67 19.4 87 87 SSE 6 9 29.88 1012 10 16 0.00 0.00
6:53 am 06:53 Cloudy 71 21.7 68 20 90 90 ESE 5 7 29.87 1012 10 16 0.00 0.00
7:04 am 07:04 undefined 71 21.7 67 19.4 87 87 SE 8 13 29.88 1012 10 16 0.00 0.00
7:53 am 07:53 undefined 71 21.7 67 19.4 87 87 E 6 9 29.88 1012 10 16 0.00 0.00
8:53 am 08:53 undefined 73 22.8 67 19.4 81 81 E 7 11 29.90 1013 10 16 0.00 0.00
9:53 am 09:53 undefined 77 25 66 18.9 69 69 NE 7 11 29.90 1013 10 16 0.00 0.00
10:53 am 10:53 undefined 79 26.1 66 18.9 65 65 NNE 6 9 29.91 1013 10 16 0.00 0.00
11:53 am 11:53 Mostly Cloudy 82 27.8 65 18.3 56 56 E 6 9 29.91 1013 10 16 0.00 0.00
12:53 pm 12:53 Partly Cloudy 85 29.4 63 17.2 48 48 E 12 19 29.91 1013 10 16 0.00 0.00
1:53 pm 13:53 Partly Cloudy 85 29.4 64 17.8 50 50 E 8 13 29.88 1012 10 16 0.00 0.00
2:53 pm 14:53 Partly Cloudy 88 31.1 63 17.2 43 43 E 7 11 29.85 1011 10 16 0.00 0.00
3:53 pm 15:53 Mostly Cloudy 88 31.1 64 17.8 45 45 E 13 20 29.83 1010 10 16 0.00 0.00
4:53 pm 16:53 Mostly Cloudy 88 31.1 63 17.2 43 43 E 13 20 29.81 1010 10 16 0.00 0.00
5:53 pm 17:53 Partly Cloudy 89 31.7 61 16.1 39 39 E 12 19 29.79 1009 10 16 0.00 0.00
6:53 pm 18:53 Mostly Sunny 88 31.1 62 16.7 42 42 E 16 26 29.78 1009 10 16 0.00 0.00
7:53 pm 19:53 Sunny 87 30.6 61 16.1 42 42 E 14 22 29.80 1009 10 16 0.00 0.00
8:53 pm 20:53 Sunny 83 28.3 63 17.2 51 51 ENE 12 19 29.83 1010 10 16 0.00 0.00
9:53 pm 21:53 Clear 80 26.7 66 18.9 62 62 E 12 19 29.85 1011 10 16 0.00 0.00
11:53 pm 23:53 Mostly Clear 77 25 66 18.9 69 69 ESE 7 11 29.90 1012 10 16 0.00 0.00

Powered by AerisWeather